FW3232 Weather Reports


Display with metric or nautical units.
time (UTC)temp
F
wind
direction
speed
MPH
gust
MPH
rain 1hr
in
rain 24hr
in
rain mn
in
humidity
%
barometer
mb
20260906055937 77 360 0.0 2.0 0.00 0.00 0.00 69 1014.9
20260906055437 77 360 0.0 0.0 0.00 0.00 0.00 69 1014.9
20260906054937 77 360 0.0 0.0 0.00 0.00 0.00 70 1014.9
20260906054437 77 360 0.0 0.0 0.00 0.00 0.00 70 1014.9
20260906053937 78 360 0.0 1.0 0.00 0.00 0.00 69 1014.9
20260906053437 78 360 0.0 2.0 0.00 0.00 0.00 67 1014.9
20260906052937 78 338 2.0 2.0 0.00 0.00 0.00 67 1014.9
20260906052437 78 342 1.0 2.0 0.00 0.00 0.00 66 1014.9
20260906051937 78 330 1.0 2.0 0.00 0.00 0.00 66 1014.9
20260906051437 78 320 1.0 3.0 0.00 0.00 0.00 67 1014.9
20260906050937 78 340 0.0 1.0 0.00 0.00 0.00 67 1014.9
20260906050438 78 360 0.0 0.0 0.00 0.00 0.00 67 1014.9
20260906045937 79 360 0.0 0.0 0.00 0.00 0.00 67 1014.9
20260906045437 79 360 0.0 2.0 0.00 0.00 0.00 65 1014.9
20260906044937 80 360 0.0 2.0 0.00 0.00 0.00 63 1014.9
20260906044438 80 333 1.0 2.0 0.00 0.00 0.00 63 1014.9
20260906043937 80 335 1.0 3.0 0.00 0.00 0.00 63 1014.9
20260906043437 80 327 2.0 3.0 0.00 0.00 0.00 63 1014.9
20260906042937 80 333 1.0 3.0 0.00 0.00 0.00 63 1014.9
20260906042437 80 312 2.0 3.0 0.00 0.00 0.00 62 1014.9
20260906041938 80 343 2.0 3.0 0.00 0.00 0.00 62 1014.9
20260906041437 80 314 0.0 3.0 0.00 0.00 0.00 61 1014.9
20260906040937 80 281 0.0 3.0 0.00 0.00 0.00 62 1014.9
20260906040437 80 334 1.0 3.0 0.00 0.00 0.00 61 1014.9
20260906035937 81 346 2.0 3.0 0.00 0.00 0.00 61 1014.9
20260906035437 81 300 0.0 3.0 0.00 0.00 0.00 61 1014.9
20260906034937 81 302 1.0 3.0 0.00 0.00 0.00 61 1014.9
20260906034437 81 342 2.0 2.0 0.00 0.00 0.00 61 1014.9
20260906033937 80 322 1.0 3.0 0.00 0.00 0.00 61 1014.9
20260906033437 81 340 1.0 2.0 0.00 0.00 0.00 62 1014.9
20260906032938 81 335 1.0 2.0 0.00 0.00 0.00 63 1014.9
20260906032437 81 101 0.0 2.0 0.00 0.00 0.00 62 1014.9
20260906031937 82 231 0.0 2.0 0.00 0.00 0.00 60 1014.9
20260906031437 82 304 0.0 2.0 0.00 0.00 0.00 59 1014.9
20260906030937 82 336 2.0 3.0 0.00 0.00 0.00 59 1014.9
20260906030437 82 333 2.0 3.0 0.00 0.00 0.00 60 1014.9
20260906025939 82 348 2.0 3.0 0.00 0.00 0.00 60 1014.9
20260906025437 82 339 2.0 3.0 0.00 0.00 0.00 60 1014.9
20260906024941 82 360 0.0 2.0 0.00 0.00 0.00 59 1014.9
20260906024438 82 328 0.0 2.0 0.00 0.00 0.00 59 1014.9
20260906023937 83 359 0.0 1.0 0.00 0.00 0.00 60 1014.9
20260906023437 83 360 0.0 2.0 0.00 0.00 0.00 58 1014.9
20260906022937 83 327 1.0 2.0 0.00 0.00 0.00 57 1014.9
20260906022437 83 326 1.0 2.0 0.00 0.00 0.00 57 1014.9
20260906021937 83 360 0.0 0.0 0.00 0.00 0.00 58 1014.9
20260906021437 83 360 0.0 2.0 0.00 0.00 0.00 56 1014.9
20260906020937 84 351 2.0 6.0 0.00 0.00 0.00 56 1014.9
20260906020437 84 328 2.0 6.0 0.00 0.00 0.00 56 1014.9
20260906015937 84 315 1.0 3.0 0.00 0.00 0.00 57 1014.9
20260906015438 85 360 0.0 4.0 0.00 0.00 0.00 54 1014.9
20260906014937 85 321 2.0 4.0 0.00 0.00 0.00 55 1014.9
20260906014437 85 333 1.0 2.0 0.00 0.00 0.00 54 1014.9
20260906013937 85 347 2.0 2.0 0.00 0.00 0.00 55 1014.9
20260906013437 85 339 2.0 3.0 0.00 0.00 0.00 54 1014.9
20260906012937 86 249 0.0 2.0 0.00 0.00 0.00 54 1014.9
20260906012438 86 360 0.0 1.0 0.00 0.00 0.00 54 1014.9
20260906011937 86 333 1.0 1.0 0.00 0.00 0.00 53 1014.9
20260906011437 87 331 0.0 2.0 0.00 0.00 0.00 52 1014.9
20260906010937 87 335 2.0 2.0 0.00 0.00 0.00 52 1014.9
20260906010437 87 330 2.0 2.0 0.00 0.00 0.00 52 1014.9
20260906005938 88 346 2.0 3.0 0.00 0.00 0.00 52 1014.9
20260906005437 88 346 2.0 3.0 0.00 0.00 0.00 51 1014.9
20260906004937 89 347 2.0 3.0 0.00 0.00 0.00 50 1014.9
20260906004437 89 332 2.0 3.0 0.00 0.00 0.00 51 1014.9
20260906003937 90 344 2.0 3.0 0.00 0.00 0.00 49 1014.9
20260906003438 91 345 2.0 3.0 0.00 0.00 0.00 48 1014.9
20260906002937 91 319 2.0 4.0 0.00 0.00 0.00 48 1014.9
20260906002441 92 338 2.0 3.0 0.00 0.00 0.00 46 1014.9
20260906001937 93 324 2.0 3.0 0.00 0.00 0.00 46 1014.9
20260906001437 94 339 2.0 2.0 0.00 0.00 0.00 45 1014.9
20260906000937 96 348 2.0 3.0 0.00 0.00 0.00 42 1014.9
20260906000437 97 340 2.0 3.0 0.00 0.00 0.00 40 1014.9
20260905235937 98 332 2.0 3.0 0.00 0.00 0.00 39 1014.9
20260905235437 98 360 0.0 3.0 0.00 0.00 0.00 37 1014.9
20260905234937 98 185 1.0 3.0 0.00 0.00 0.00 37 1014.9
20260905234437 98 165 0.0 4.0 0.00 0.00 0.00 36 1014.9
20260905233937 99 158 2.0 5.0 0.00 0.00 0.00 36 1014.9
20260905233437 99 193 2.0 4.0 0.00 0.00 0.00 35 1014.9
20260905232937 99 185 0.0 3.0 0.00 0.00 0.00 35 1014.9
20260905232438 99 156 1.0 4.0 0.00 0.00 0.00 35 1014.9
20260905231937 99 161 2.0 6.0 0.00 0.00 0.00 35 1014.9
20260905231437 100 149 5.0 16.0 0.00 0.00 0.00 35 1014.9
20260905231015 100 13 9.0 11.0 0.00 0.00 0.00 35 1014.9
20260905230437 100 104 1.0 5.0 0.00 0.00 0.00 35 1014.9
20260905225937 100 23 4.0 8.0 0.00 0.00 0.00 35 1014.9
20260905225437 100 345 4.0 6.0 0.00 0.00 0.00 35 1014.9
20260905224937 100 62 2.0 9.0 0.00 0.00 0.00 35 1014.9
20260905224437 101 41 7.0 9.0 0.00 0.00 0.00 35 1014.9
20260905223937 101 136 4.0 5.0 0.00 0.00 0.00 34 1014.9
20260905223437 102 16 2.0 4.0 0.00 0.00 0.00 32 1014.9
20260905222937 102 55 2.0 6.0 0.00 0.00 0.00 32 1014.9
20260905222437 101 9 3.0 5.0 0.00 0.00 0.00 32 1014.9
20260905221938 101 54 0.0 4.0 0.00 0.00 0.00 32 1014.9
20260905221438 100 44 2.0 8.0 0.00 0.00 0.00 33 1014.9
20260905220937 100 182 3.0 10.0 0.00 0.00 0.00 34 1014.9
20260905220439 101 100 5.0 9.0 0.00 0.00 0.00 34 1014.9
20260905215937 101 148 4.0 7.0 0.00 0.00 0.00 34 1014.9
20260905215437 101 275 2.0 6.0 0.00 0.00 0.00 34 1014.9
20260905214937 101 295 2.0 6.0 0.00 0.00 0.00 33 1014.9
20260905214437 100 27 3.0 7.0 0.00 0.00 0.00 35 1014.9
20260905213937 100 137 4.0 7.0 0.00 0.00 0.00 35 1014.9
20260905213437 100 87 2.0 4.0 0.00 0.00 0.00 35 1014.9
20260905212937 99 37 1.0 9.0 0.00 0.00 0.00 36 1014.9
20260905212438 100 61 2.0 8.0 0.00 0.00 0.00 36 1014.9
20260905211937 100 27 2.0 6.0 0.00 0.00 0.00 36 1014.9
20260905211437 99 37 2.0 6.0 0.00 0.00 0.00 37 1014.9
20260905210937 98 46 2.0 8.0 0.00 0.00 0.00 38 1014.9
20260905210445 99 43 4.0 8.0 0.00 0.00 0.00 38 1014.9
20260905205938 100 22 3.0 8.0 0.00 0.00 0.00 36 1014.9
20260905205437 101 156 3.0 6.0 0.00 0.00 0.00 33 1014.9
20260905204938 101 71 2.0 11.0 0.00 0.00 0.00 34 1014.9
20260905204438 102 114 4.0 6.0 0.00 0.00 0.00 33 1014.9
20260905203937 101 289 2.0 5.0 0.00 0.00 0.00 34 1014.9
20260905203437 101 230 2.0 5.0 0.00 0.00 0.00 33 1014.9
20260905202937 101 316 2.0 8.0 0.00 0.00 0.00 34 1014.9
20260905202445 101 121 1.0 4.0 0.00 0.00 0.00 33 1014.9
20260905201937 99 315 1.0 3.0 0.00 0.00 0.00 36 1014.9
20260905201437 98 65 1.0 3.0 0.00 0.00 0.00 37 1014.9
20260905200937 98 40 1.0 6.0 0.00 0.00 0.00 38 1014.9
20260905200437 98 59 2.0 6.0 0.00 0.00 0.00 38 1014.9
20260905195937 98 356 4.0 6.0 0.00 0.00 0.00 38 1014.9
20260905195437 99 33 3.0 9.0 0.00 0.00 0.00 38 1014.9
20260905194937 100 68 4.0 8.0 0.00 0.00 0.00 37 1014.9
20260905194437 101 73 3.0 9.0 0.00 0.00 0.00 36 1014.9
20260905193937 102 48 4.0 10.0 0.00 0.00 0.00 35 1014.9
20260905193437 103 2 3.0 8.0 0.00 0.00 0.00 33 1014.9
20260905192937 101 18 4.0 9.0 0.00 0.00 0.00 34 1014.9
20260905192437 100 34 3.0 9.0 0.00 0.00 0.00 35 1014.9
20260905191954 99 96 4.0 7.0 0.00 0.00 0.00 37 1014.9
20260905191437 101 44 4.0 7.0 0.00 0.00 0.00 37 1014.9
20260905190937 102 26 2.0 9.0 0.00 0.00 0.00 35 1014.9
20260905190437 103 40 4.0 9.0 0.00 0.00 0.00 33 1014.9
20260905185937 102 347 3.0 6.0 0.00 0.00 0.00 34 1014.9
20260905185437 101 295 4.0 8.0 0.00 0.00 0.00 35 1014.9
20260905184937 100 160 5.0 8.0 0.00 0.00 0.00 35 1014.9
20260905184437 99 154 4.0 6.0 0.00 0.00 0.00 36 1014.9
20260905183937 97 173 4.0 5.0 0.00 0.00 0.00 37 1014.9
20260905183437 96 131 4.0 5.0 0.00 0.00 0.00 40 1014.9
20260905182938 96 49 4.0 5.0 0.00 0.00 0.00 40 1014.9
20260905182437 96 23 1.0 5.0 0.00 0.00 0.00 40 1014.9
20260905181937 96 143 4.0 5.0 0.00 0.00 0.00 40 1014.9
20260905181437 96 51 1.0 5.0 0.00 0.00 0.00 41 1014.9
20260905180937 96 92 2.0 6.0 0.00 0.00 0.00 41 1014.9
20260905180437 97 62 4.0 6.0 0.00 0.00 0.00 42 1014.9
20260905175937 98 57 2.0 5.0 0.00 0.00 0.00 40 1014.9
20260905175437 99 27 2.0 9.0 0.00 0.00 0.00 40 1014.9
20260905174937 100 24 6.0 9.0 0.00 0.00 0.00 38 1014.9
20260905174437 101 47 5.0 9.0 0.00 0.00 0.00 37 1014.9
20260905173937 100 71 5.0 8.0 0.00 0.00 0.00 37 1014.9
20260905173437 99 127 3.0 6.0 0.00 0.00 0.00 38 1014.9
20260905172937 100 25 2.0 10.0 0.00 0.00 0.00 38 1014.9
20260905172437 99 165 5.0 9.0 0.00 0.00 0.00 40 1014.9
20260905171937 101 4 5.0 10.0 0.00 0.00 0.00 39 1014.9
20260905171438 102 318 6.0 10.0 0.00 0.00 0.00 37 1014.9
20260905170937 102 19 4.0 8.0 0.00 0.00 0.00 35 1014.9
20260905170437 100 344 4.0 10.0 0.00 0.00 0.00 37 1014.9
20260905165937 100 268 6.0 10.0 0.00 0.00 0.00 39 1014.9
20260905165437 100 328 3.0 10.0 0.00 0.00 0.00 39 1014.9
20260905164937 100 292 3.0 8.0 0.00 0.00 0.00 38 1014.9
20260905164437 99 50 2.0 4.0 0.00 0.00 0.00 39 1014.9
20260905163937 98 99 2.0 8.0 0.00 0.00 0.00 41 1014.9
20260905163439 97 312 4.0 8.0 0.00 0.00 0.00 41 1014.9
20260905162937 96 12 4.0 7.0 0.00 0.00 0.00 42 1014.9
20260905162437 97 18 3.0 7.0 0.00 0.00 0.00 43 1014.9
20260905161937 98 79 4.0 7.0 0.00 0.00 0.00 42 1014.9
20260905161437 98 247 3.0 9.0 0.00 0.00 0.00 41 1014.9
20260905160937 98 48 3.0 9.0 0.00 0.00 0.00 41 1014.9
20260905160437 99 30 6.0 9.0 0.00 0.00 0.00 42 1014.9
20260905155937 99 11 4.0 8.0 0.00 0.00 0.00 42 1014.9
20260905155438 98 228 2.0 8.0 0.00 0.00 0.00 41 1014.9
20260905154937 98 353 5.0 9.0 0.00 0.00 0.00 43 1014.9
20260905154437 97 307 2.0 8.0 0.00 0.00 0.00 43 1014.9
20260905153937 96 356 5.0 11.0 0.00 0.00 0.00 44 1014.9
20260905153437 96 331 2.0 10.0 0.00 0.00 0.00 44 1014.9
20260905152937 95 328 4.0 10.0 0.00 0.00 0.00 46 1014.9
20260905152437 94 336 7.0 12.0 0.00 0.00 0.00 47 1014.9
20260905151937 94 312 6.0 12.0 0.00 0.00 0.00 47 1014.9
20260905151437 94 263 6.0 10.0 0.00 0.00 0.00 47 1014.9
20260905150937 94 339 4.0 9.0 0.00 0.00 0.00 47 1014.9
20260905150437 93 343 4.0 12.0 0.00 0.00 0.00 50 1014.9
20260905145937 93 323 6.0 9.0 0.00 0.00 0.00 49 1014.9
20260905145437 93 312 4.0 12.0 0.00 0.00 0.00 49 1014.9
20260905144937 94 338 4.0 8.0 0.00 0.00 0.00 47 1014.9
20260905144438 93 337 4.0 8.0 0.00 0.00 0.00 48 1014.9
20260905143937 92 291 2.0 6.0 0.00 0.00 0.00 49 1014.9
20260905143437 91 326 3.0 6.0 0.00 0.00 0.00 51 1014.9
20260905142937 89 285 2.0 5.0 0.00 0.00 0.00 57 1014.9
20260905142437 88 232 2.0 5.0 0.00 0.00 0.00 58 1014.9
20260905141937 87 182 3.0 8.0 0.00 0.00 0.00 62 1014.9
20260905141437 85 202 4.0 8.0 0.00 0.00 0.00 65 1014.9
20260905140938 85 183 4.0 8.0 0.00 0.00 0.00 65 1014.9
20260905140437 86 168 5.0 7.0 0.00 0.00 0.00 64 1014.9
20260905135937 85 259 3.0 5.0 0.00 0.00 0.00 66 1014.9
20260905134937 84 286 2.0 4.0 0.00 0.00 0.00 66 1014.9
20260905134438 84 259 2.0 4.0 0.00 0.00 0.00 67 1014.9
20260905133937 83 232 3.0 4.0 0.00 0.00 0.00 68 1014.9
20260905133437 83 250 2.0 4.0 0.00 0.00 0.00 69 1014.9
20260905132937 83 282 2.0 4.0 0.00 0.00 0.00 70 1014.9
20260905132438 83 245 2.0 4.0 0.00 0.00 0.00 69 1014.9
20260905131938 82 229 0.0 3.0 0.00 0.00 0.00 70 1014.9
20260905131437 82 231 1.0 4.0 0.00 0.00 0.00 71 1014.9
20260905130937 81 146 0.0 4.0 0.00 0.00 0.00 70 1014.9
20260905130437 80 312 2.0 4.0 0.00 0.00 0.00 71 1014.9
20260905125937 79 309 2.0 4.0 0.00 0.00 0.00 73 1014.9
20260905125444 78 298 1.0 4.0 0.00 0.00 0.00 73 1014.9
20260905124937 77 250 2.0 4.0 0.00 0.00 0.00 75 1014.9
20260905124438 76 309 1.0 4.0 0.00 0.00 0.00 79 1014.9
20260905123938 76 265 1.0 3.0 0.00 0.00 0.00 80 1014.9
20260905123437 76 263 2.0 3.0 0.00 0.00 0.00 79 1014.9
20260905122937 75 319 3.0 3.0 0.00 0.00 0.00 80 1014.9
20260905122438 74 260 2.0 3.0 0.00 0.00 0.00 81 1014.9
20260905121938 73 263 2.0 4.0 0.00 0.00 0.00 83 1014.9
20260905121438 73 302 2.0 4.0 0.00 0.00 0.00 84 1014.9
20260905120938 72 297 1.0 4.0 0.00 0.00 0.00 86 1014.9
20260905120437 72 291 2.0 5.0 0.00 0.00 0.00 87 1014.9
20260905115937 72 321 4.0 4.0 0.00 0.00 0.00 87 1014.9
20260905115438 72 303 2.0 5.0 0.00 0.00 0.00 87 1014.8
20260905114938 72 312 4.0 6.0 0.00 0.00 0.00 87 1014.8
20260905114437 72 308 3.0 4.0 0.00 0.00 0.00 86 1014.8
20260905113938 72 295 2.0 4.0 0.00 0.00 0.00 87 1014.8
20260905113437 72 270 0.0 4.0 0.00 0.00 0.00 86 1014.8
20260905112937 72 320 3.0 5.0 0.00 0.00 0.00 86 1014.8
20260905112437 72 318 2.0 5.0 0.00 0.00 0.00 85 1014.8
20260905111939 72 309 3.0 5.0 0.00 0.00 0.00 86 1014.7
20260905111437 72 298 2.0 4.0 0.00 0.00 0.00 86 1014.7
20260905110938 72 292 1.0 4.0 0.00 0.00 0.00 86 1014.7
20260905110437 72 315 3.0 5.0 0.00 0.00 0.00 87 1014.7
20260905105937 72 317 2.0 3.0 0.00 0.00 0.00 87 1014.7
20260905105436 72 262 2.0 4.0 0.00 0.00 0.00 86 1014.7
20260905104937 72 318 2.0 4.0 0.00 0.00 0.00 86 1014.7
20260905104437 72 293 3.0 4.0 0.00 0.00 0.00 86 1014.5
20260905103937 73 270 1.0 3.0 0.00 0.00 0.00 85 1014.5
20260905103438 73 237 2.0 5.0 0.00 0.00 0.00 85 1014.5
20260905102937 73 310 2.0 5.0 0.00 0.00 0.00 85 1015.8
20260905102437 73 315 3.0 5.0 0.00 0.00 0.00 84 1015.8
20260905101937 73 315 3.0 5.0 0.00 0.00 0.00 85 1015.8
20260905101437 73 307 1.0 4.0 0.00 0.00 0.00 84 1015.8
20260905100937 73 313 2.0 5.0 0.00 0.00 0.00 84 1015.8
20260905100437 73 296 1.0 6.0 0.00 0.00 0.00 85 1015.8
20260905095937 73 306 2.0 5.0 0.00 0.00 0.00 84 1015.8
20260905095437 73 314 3.0 5.0 0.00 0.00 0.00 85 1015.8
20260905094937 73 318 4.0 5.0 0.00 0.00 0.00 84 1015.8
20260905094437 73 313 3.0 5.0 0.00 0.00 0.00 83 1015.8
20260905093937 73 309 3.0 5.0 0.00 0.00 0.00 84 1015.8
20260905093437 73 321 3.0 5.0 0.00 0.00 0.00 83 1015.8
20260905092937 73 292 1.0 4.0 0.00 0.00 0.00 82 1015.8
20260905092437 74 308 2.0 4.0 0.00 0.00 0.00 82 1015.8
20260905091937 73 300 2.0 5.0 0.00 0.00 0.00 82 1015.8
20260905091437 73 317 3.0 5.0 0.00 0.00 0.00 81 1015.8
20260905090937 73 320 3.0 5.0 0.00 0.00 0.00 82 1015.8
20260905090437 74 310 3.0 6.0 0.00 0.00 0.00 82 1015.8
20260905085937 74 307 3.0 5.0 0.00 0.00 0.00 81 1015.8
20260905085437 74 313 3.0 6.0 0.00 0.00 0.00 81 1015.8
20260905084939 74 313 3.0 6.0 0.00 0.00 0.00 81 1015.8
20260905084437 74 306 2.0 5.0 0.00 0.00 0.00 81 1015.8
20260905083937 74 315 3.0 5.0 0.00 0.00 0.00 81 1015.8
20260905083437 74 294 2.0 4.0 0.00 0.00 0.00 80 1015.8
20260905082938 74 302 2.0 6.0 0.00 0.00 0.00 80 1015.8
20260905082437 74 303 3.0 5.0 0.00 0.00 0.00 80 1015.8
20260905081937 74 311 3.0 6.0 0.00 0.00 0.00 80 1015.8
20260905081437 74 318 4.0 6.0 0.00 0.00 0.00 80 1015.8
20260905080938 74 309 4.0 6.0 0.00 0.00 0.00 80 1015.8
20260905080439 74 310 3.0 6.0 0.00 0.00 0.00 80 1015.8
20260905075937 74 314 4.0 5.0 0.00 0.00 0.00 80 1015.8
20260905075437 74 306 2.0 5.0 0.00 0.00 0.00 79 1015.8
20260905074939 74 309 2.0 5.0 0.00 0.00 0.00 79 1015.8
20260905074437 75 310 3.0 5.0 0.00 0.00 0.00 79 1015.8
20260905073937 75 307 3.0 4.0 0.00 0.00 0.00 78 1015.8
20260905073439 75 299 1.0 5.0 0.00 0.00 0.00 78 1015.8
20260905072937 75 303 2.0 6.0 0.00 0.00 0.00 77 1015.8
20260905072437 75 313 3.0 7.0 0.00 0.00 0.00 77 1015.8
20260905071937 75 314 4.0 5.0 0.00 0.00 0.00 77 1015.8
20260905071437 75 305 2.0 6.0 0.00 0.00 0.00 76 1015.8
20260905070937 75 310 3.0 6.0 0.00 0.00 0.00 76 1015.8
20260905070437 76 317 3.0 5.0 0.00 0.00 0.00 76 1015.8
20260905065938 76 293 1.0 4.0 0.00 0.00 0.00 75 1015.8
20260905065437 76 309 2.0 5.0 0.00 0.00 0.00 76 1015.8
20260905064937 76 304 2.0 5.0 0.00 0.00 0.00 75 1015.8
20260905064438 76 310 3.0 5.0 0.00 0.00 0.00 75 1015.8
20260905063937 76 315 2.0 4.0 0.00 0.00 0.00 74 1015.8
20260905063437 76 311 2.0 4.0 0.00 0.00 0.00 75 1015.8
20260905062939 76 313 2.0 4.0 0.00 0.00 0.00 74 1015.8
20260905062439 76 315 3.0 4.0 0.00 0.00 0.00 75 1015.8
20260905061937 76 309 2.0 4.0 0.00 0.00 0.00 74 1015.8
20260905061437 76 307 2.0 5.0 0.00 0.00 0.00 74 1015.8
20260905060937 76 307 2.0 5.0 0.00 0.00 0.00 74 1015.8
20260905060437 76 322 4.0 5.0 0.00 0.00 0.00 74 1015.8